DELTA 1 DEB, 40759

Orbit data source: Space-Track

DELTA 1 DEB, 40759 is space debris in SSO originally from a launch on Thu, 29 Jul 1976 UTC launched from the Air Force Western Test Range (AFWTR). Debris objects in space refer to the collection of defunct objects orbiting the Earth. Examples of debris include non-operational satellites, rocket bodies, and fragments generated from explosions, collisions, or faulty payload assembly.

Loading next visibility...
DELTA 1 DEB details
Identifier
40759, 1976-077GC
Orbit
SSO
Last TLE update2 weeks ago
Origin
Flag of USGSFC (US)
ManufacturerUnknown
MissionSpacecraft
Bus & MotorUnknown
MassUnknown
Launch date (UTC)
1976-07-29 (48 years ago)
Launch vehicleUnknown
Launch site
Air Force Western Test Range (AFWTR)
Object type
Payload
Rocket body
Debris
Shape & HBRUnknown
Radar Cross SectionSmall (<0.1 m²)

Expand to show TLE details & history

TLE from 2 weeks ago
0 DELTA 1 DEB
1 40759U 76077GC  24344.93715252  .00000085  00000-0  60538-3 0  9991
2 40759 102.1446  53.4628 0292143 317.8513  40.0430 12.66416021914848
Epoch: 2024-12-09T22:29Z
Definitive object data (Epoch: 2024-12-09T22:29:29.977Z)
Latitude-0.00005°
Longitude-3.06547°
Altitude1,228.087 km
Speed7.32 km/s
True Right ascension03h 33m 51s
True Declination0° 00' 00"
Sunlit
Object was in full shadow at TLE epoch
Visualization TLE readout
Latitude-76.49472°
Longitude77.78187°
Altitude1,199.297 km
Speed7.359 km/s
Apparent Right ascension09h 02m 19s
Apparent Declination-59° 41' 47"
Sunlit
Object is in daylight
Visualization observer readout
Local Sidereal Time21:04:10
Azimuth179.313° S
Elevation-70.218°
Doppler factor1
Orbital elements
Apogee altitude1,621.181 km
Perigee altitude1,167.059 km
Semi-major axis7,772.257 km
Eccentricity0.0292143
Inclination102.1446°
RAAN53.4628°
Arg. of periapsis317.8513°
True anomaly42.25811°
Mean anomaly40.043°
Eccentric anomaly41.14433°
Mean motion3.16754 °/min
BSTAR0.00060538
Orbital period113.65 mins
Loading maneuver chart data...
Loading historical data...
Loading historical data...
Loading historical data...
Loading historical data...
Loading historical data...
Loading historical data...
Loading historical data...

DELTA 1 DEB Visibility forecast

Observer location: undefined°, undefined

Span
Click to sort rows by Start time (UTC) header in descending order
Start Az.
Max El. time (UTC)
Max El. Az.
Max El.
End time (UTC)
End Az.
6 mins2024-12-27 02:09:08.603Z64.423° ENE2024-12-27 02:12:08.603Z42.934° NE13.47°2024-12-27 02:15:08.603Z21.819° NNE
15 mins2024-12-27 03:55:08.603Z135.571° SSE2024-12-27 04:02:08.603Z52.94° ENE39.521°2024-12-27 04:10:08.603Z349.964° N
13 mins2024-12-27 05:48:08.603Z209.611° SW2024-12-27 05:53:08.603Z257.983° W29.098°2024-12-27 06:01:08.603Z324.872° NNW
7 mins2024-12-27 15:54:08.603Z67.71° E2024-12-27 15:57:08.603Z89.484° E14.696°2024-12-27 16:01:08.603Z118.02° SE
16 mins2024-12-27 17:42:08.603Z21.648° NNE2024-12-27 17:50:08.603Z126.291° SE44.202°2024-12-27 17:58:08.603Z192.957° SSW
12 mins2024-12-27 19:35:08.603Z350.491° N2024-12-27 19:40:08.603Z309.483° NW25.36°2024-12-27 19:47:08.603Z254.368° W
|